Location: Mohawk View
(42.7837°N, 73.7885°W)
Time: 05:55:52
(UTC+00:00)

USA 229 - Pass Details

Date: 17 June 2021
Orbit: 956 x 1256 km, 63.5° (Epoch: 25 July)

Event Time Altitude Azimuth Distance (km) Brightness Sun altitude
Exits shadow 06:08:30 40° 215° (SW) 1,426 3.9 -21.8°
Maximum altitude 06:11:03 90° 307° (NW) 1,016 3.5 -21.6°
Drops below altitude 10° 06:17:52 10° 36° (NE) 2,896 7.0 -21.2°
Sets 06:20:36 0° 37° (NE) 3,899 8.0 -21.0°
